TimePDT,TemperatureF,Dew PointF,Humidity,Sea Level PressureIn,VisibilityMPH,Wind Direction,Wind SpeedMPH,Gust SpeedMPH,PrecipitationIn,Events,Conditions,WindDirDegrees,DateUTC
12:15 AM,50.0,46.4,87,30.24,10.0,Calm,Calm,-,N/A,,Overcast,0,2013-03-11 07:15:00
12:35 AM,48.2,44.6,87,30.23,10.0,ESE,3.5,-,N/A,,Overcast,110,2013-03-11 07:35:00
12:55 AM,48.2,44.6,87,30.22,10.0,Calm,Calm,-,N/A,,Overcast,0,2013-03-11 07:55:00
1:15 AM,48.2,46.4,93,30.22,10.0,Calm,Calm,-,N/A,,Overcast,0,2013-03-11 08:15:00
1:55 AM,46.4,44.6,93,30.22,2.0,East,4.6,-,N/A,,Overcast,80,2013-03-11 08:55:00
2:15 AM,46.4,44.6,93,30.22,1.2,East,6.9,-,N/A,,Overcast,90,2013-03-11 09:15:00
2:35 AM,46.4,44.6,93,30.22,1.0,East,4.6,-,N/A,,Overcast,80,2013-03-11 09:35:00
2:55 AM,46.4,44.6,93,30.21,0.8,East,4.6,-,N/A,,Overcast,90,2013-03-11 09:55:00
3:15 AM,46.4,44.6,93,30.20,1.2,ENE,4.6,-,N/A,,Overcast,70,2013-03-11 10:15:00
3:35 AM,46.4,44.6,93,30.19,1.0,East,5.8,-,N/A,,Overcast,90,2013-03-11 10:35:00
3:55 AM,44.6,42.8,93,30.19,1.0,East,5.8,-,N/A,,Overcast,90,2013-03-11 10:55:00
4:15 AM,44.6,42.8,93,30.18,1.5,East,4.6,-,0.01,,Overcast,80,2013-03-11 11:15:00
4:35 AM,44.6,42.8,93,30.19,1.0,ENE,3.5,-,0.01,,Overcast,70,2013-03-11 11:35:00
4:55 AM,44.6,42.8,93,30.19,0.8,ENE,3.5,-,0.01,,Overcast,60,2013-03-11 11:55:00
5:15 AM,44.6,42.8,93,30.18,1.8,ESE,4.6,-,N/A,,Overcast,110,2013-03-11 12:15:00
5:35 AM,44.6,42.8,93,30.18,2.5,ESE,3.5,-,N/A,,Overcast,120,2013-03-11 12:35:00
5:55 AM,44.6,42.8,93,30.19,2.0,East,5.8,-,N/A,,Overcast,90,2013-03-11 12:55:00
6:15 AM,44.6,42.8,93,30.19,1.5,SSE,4.6,-,N/A,,Overcast,150,2013-03-11 13:15:00
6:35 AM,44.6,42.8,93,30.20,0.8,NE,3.5,-,N/A,,Overcast,50,2013-03-11 13:35:00
6:55 AM,44.6,42.8,93,30.20,0.5,Calm,Calm,-,N/A,,Overcast,0,2013-03-11 13:55:00
7:15 AM,44.6,42.8,93,30.20,0.2,Calm,Calm,-,N/A,,Overcast,0,2013-03-11 14:15:00
7:35 AM,42.8,42.8,100,30.20,0.2,Calm,Calm,-,N/A,,Overcast,0,2013-03-11 14:35:00
7:55 AM,42.8,42.8,100,30.21,0.2,East,4.6,-,N/A,,Overcast,100,2013-03-11 14:55:00
8:15 AM,42.8,42.8,100,30.21,0.2,East,5.8,-,N/A,,Overcast,100,2013-03-11 15:15:00
8:35 AM,42.8,41.0,93,30.21,0.2,SE,5.8,-,N/A,,Overcast,140,2013-03-11 15:35:00
8:55 AM,42.8,39.2,87,30.22,0.2,East,3.5,-,N/A,,Overcast,80,2013-03-11 15:55:00
9:15 AM,42.8,42.8,100,30.22,0.8,ESE,4.6,-,N/A,,Overcast,120,2013-03-11 16:15:00
9:35 AM,44.6,42.8,93,30.21,8.0,ESE,4.6,-,N/A,,Mostly Cloudy,110,2013-03-11 16:35:00
9:55 AM,46.4,44.6,93,30.20,10.0,East,3.5,-,N/A,,Partly Cloudy,100,2013-03-11 16:55:00
10:15 AM,50.0,44.6,82,30.20,10.0,Calm,Calm,-,N/A,,Clear,0,2013-03-11 17:15:00
10:35 AM,53.6,44.6,72,30.20,10.0,Calm,Calm,-,N/A,,Clear,0,2013-03-11 17:35:00
10:55 AM,55.4,42.8,63,30.19,10.0,Calm,Calm,-,N/A,,Clear,0,2013-03-11 17:55:00
11:15 AM,60.8,42.8,52,30.19,10.0,Calm,Calm,-,N/A,,Clear,0,2013-03-11 18:15:00
11:35 AM,60.8,39.2,45,30.18,10.0,Calm,Calm,-,N/A,,Clear,0,2013-03-11 18:35:00
11:55 AM,64.4,39.2,40,30.19,10.0,WNW,4.6,-,N/A,,Clear,300,2013-03-11 18:55:00
12:15 PM,66.2,42.8,43,30.18,10.0,WSW,9.2,-,N/A,,Clear,240,2013-03-11 19:15:00
12:35 PM,64.4,44.6,49,30.17,10.0,West,6.9,-,N/A,,Clear,270,2013-03-11 19:35:00
12:55 PM,66.2,44.6,46,30.17,10.0,WNW,9.2,-,N/A,,Clear,290,2013-03-11 19:55:00
1:15 PM,66.2,42.8,43,30.16,10.0,West,11.5,-,N/A,,Clear,270,2013-03-11 20:15:00
1:35 PM,66.2,42.8,43,30.15,10.0,West,10.4,-,N/A,,Clear,270,2013-03-11 20:35:00
1:55 PM,66.2,39.2,37,30.15,10.0,West,11.5,-,N/A,,Clear,280,2013-03-11 20:55:00
2:15 PM,66.2,44.6,46,30.14,10.0,West,13.8,-,N/A,,Clear,270,2013-03-11 21:15:00
2:35 PM,64.4,42.8,45,30.13,10.0,West,13.8,-,N/A,,Clear,270,2013-03-11 21:35:00
2:55 PM,64.4,44.6,49,30.12,10.0,West,13.8,-,N/A,,Clear,270,2013-03-11 21:55:00
3:15 PM,64.4,46.4,52,30.12,10.0,West,15.0,-,N/A,,Clear,270,2013-03-11 22:15:00
3:35 PM,62.6,46.4,55,30.11,10.0,West,15.0,-,N/A,,Clear,270,2013-03-11 22:35:00
4:15 PM,60.8,48.2,63,30.12,10.0,West,17.3,-,N/A,,Clear,270,2013-03-11 23:15:00
4:35 PM,59.0,48.2,67,30.12,10.0,West,15.0,-,N/A,,Clear,270,2013-03-11 23:35:00
4:55 PM,59.0,48.2,67,30.11,10.0,West,11.5,-,N/A,,Clear,260,2013-03-11 23:55:00
5:15 PM,59.0,48.2,67,30.11,10.0,West,11.5,-,N/A,,Clear,270,2013-03-12 00:15:00
5:35 PM,59.0,48.2,67,30.10,10.0,West,12.7,-,N/A,,Clear,270,2013-03-12 00:35:00
5:55 PM,57.2,46.4,67,30.10,10.0,West,11.5,-,N/A,,Clear,270,2013-03-12 00:55:00
6:15 PM,57.2,46.4,67,30.11,10.0,West,11.5,-,N/A,,Clear,270,2013-03-12 01:15:00
6:35 PM,55.4,46.4,72,30.11,10.0,West,10.4,-,N/A,,Clear,270,2013-03-12 01:35:00
6:55 PM,53.6,46.4,77,30.11,10.0,West,9.2,-,N/A,,Clear,270,2013-03-12 01:55:00
7:15 PM,53.6,46.4,77,30.11,10.0,West,6.9,-,N/A,,Clear,270,2013-03-12 02:15:00
7:35 PM,51.8,48.2,88,30.11,10.0,West,6.9,-,N/A,,Clear,260,2013-03-12 02:35:00
7:55 PM,51.8,46.4,82,30.11,10.0,WSW,3.5,-,N/A,,Clear,250,2013-03-12 02:55:00
8:15 PM,51.8,46.4,82,30.11,10.0,Calm,Calm,-,N/A,,Clear,0,2013-03-12 03:15:00
8:35 PM,51.8,46.4,82,30.12,10.0,Calm,Calm,-,N/A,,Clear,0,2013-03-12 03:35:00
8:55 PM,50.0,46.4,87,30.12,10.0,Calm,Calm,-,N/A,,Clear,0,2013-03-12 03:55:00
9:15 PM,48.2,44.6,87,30.12,10.0,Calm,Calm,-,N/A,,Clear,0,2013-03-12 04:15:00
9:35 PM,48.2,44.6,87,30.12,10.0,Calm,Calm,-,N/A,,Scattered Clouds,0,2013-03-12 04:35:00
9:55 PM,48.2,46.4,93,30.12,10.0,Calm,Calm,-,N/A,,Mostly Cloudy,0,2013-03-12 04:55:00
10:15 PM,48.2,44.6,87,30.12,10.0,Calm,Calm,-,N/A,,Mostly Cloudy,0,2013-03-12 05:15:00
10:35 PM,48.2,44.6,87,30.12,10.0,Calm,Calm,-,N/A,,Overcast,0,2013-03-12 05:35:00
10:55 PM,48.2,46.4,93,30.13,5.0,Calm,Calm,-,N/A,,Overcast,0,2013-03-12 05:55:00
11:15 PM,48.2,46.4,93,30.12,3.0,Calm,Calm,-,N/A,,Overcast,0,2013-03-12 06:15:00
11:35 PM,48.2,46.4,93,30.12,3.0,Calm,Calm,-,N/A,,Overcast,0,2013-03-12 06:35:00
11:55 PM,48.2,46.4,93,30.12,5.0,Calm,Calm,-,N/A,,Overcast,0,2013-03-12 06:55:00